Find Starlink 38245

NORAD ID: 100320 Int'l Des: 2026-184 Owner: SPXS Country: US Constellation: starlink operational

Aktuelle Ansicht

3D-Globus wird geladen...

About Starlink 38245

Starlink 38245 (NORAD 100320) is a starlink constellation satellite launched Aug 12, 2026 by SPXS of US. with a mass of 575.00 kg.

Nächste Überflüge

Passes for default location (London). Set your location on the main map for personalized predictions.

Höhenverlauf

Loading altitude history...

Zweizeiliger Elementsatz

1 A0320U 26184V 26248.29333560 .00021166 00000-0 38960-3 0 9994
2 A0320 97.2845 113.5346 0001403 103.1953 256.9455 15.49202214 5028
Epoch: 5. Sept. 2026 • Age: 8 hours

Aktueller Status

Höhe 422.2 km
Apogäum / Perigäum N/A
Geschwindigkeit 7.66 km/s
Subsatellitenpunkt 0.72°N, 92.87°W
Startdatum 12. Aug. 2026
Alter 24 days
Typ internet

Technische Details

Klassifizierung Payload
Masse 575.00 kg
Trockenmasse 530.00 kg
Gesamtmasse 575.00 kg
Länge 0.30 m
Durchmesser 4.10 m
Spannweite 29.00 m
Form Box + pan
Hersteller SPXS
Bus-Typ Starlink V2MO
Phasenstatus In Orbit
Besitzer/Staat SPXS/US

Most Searched